Warrenton, VA

10:53 PM EST on December 14, 2017 (GMT -0500)
Warrenton

Weather History for KHWY - November, 2012

Change the Weather History Date:

Sunday, November 11, 2012

  Actual Average (KHEF) Record (KHEF)
Temperature  
Mean Temperature 54 °F -  
Max Temperature 75 °F 55 °F 77 °F (2006)
Min Temperature 32 °F 32 °F 21 °F (2017)
Degree Days  
Heating Degree Days 12    
Growing Degree Days 4 (Base 50)    
Moisture  
Dew Point 43 °F    
Average Humidity 71    
Maximum Humidity 100    
Minimum Humidity 37    
Precipitation  
Precipitation 0.00 in - - ()
Sea Level Pressure  
Sea Level Pressure 30.39 in    
Wind  
Wind Speed 2 mph (South)    
Max Wind Speed 8 mph    
Max Gust Speed 16 mph    
Visibility 8 miles    
Events      
Averages and records for this station are not official NWS values.
T = Trace of Precipitation, MM = Missing Value Source: NWS Daily Summary

Daily Weather History Graph

Daily Weather History Graph

Search for Another Location

Airport or City:

Trip Planner

Search our weather history database for the weather conditions in past years. The results will help you decide how hot, cold, wet, or windy it might be!

Date:

Astronomy

Nov. 11, 2012 Rise Set
Actual Time 6:48 AM EST 5:00 PM EST
Civil Twilight 6:20 AM EST 5:28 PM EST
Nautical Twilight 5:48 AM EST 6:00 PM EST
Astronomical Twilight 5:17 AM EST 6:31 PM EST
Moon 4:02 AM EST (11/11) 3:21 PM EST (11/11)
Length of Visible Light 11h 07m
Length of Day
10h 11m
Waning Crescent, 7% of the Moon is Illuminated
Nov 11
Waning Crescent
Nov 13
New
Nov 20
First Quarter
Nov 28
Full
Dec 6
Last Quarter

Hourly Weather History & Observations

Time (EST) Temp. Dew Point Humidity Pressure Visibility Wind Dir Wind Speed Gust Speed Precip Events Conditions
12:15 AM 39.4 °F 39.4 °F 100% 30.36 in 10.0 mi Calm Calm - N/A   Clear
12:35 AM 38.5 °F 38.5 °F 100% 30.35 in 10.0 mi Calm Calm - N/A   Clear
12:55 AM 36.7 °F 36.7 °F 100% 30.35 in 5.0 mi Calm Calm - N/A   Clear
1:35 AM 37.8 °F 37.8 °F 100% 30.35 in 7.0 mi Calm Calm - N/A   Clear
1:55 AM 38.7 °F 38.7 °F 100% 30.35 in 7.0 mi Calm Calm - N/A   Clear
2:15 AM 37.4 °F 37.4 °F 100% 30.35 in 3.0 mi Calm Calm - N/A   Clear
2:35 AM 35.8 °F 35.8 °F 100% 30.35 in 2.0 mi Calm Calm - N/A   Clear
2:55 AM 35.2 °F 35.2 °F 100% 30.35 in 4.0 mi Calm Calm - N/A   Clear
3:15 AM 35.1 °F 35.1 °F 100% 30.36 in 4.0 mi Calm Calm - N/A   Clear
3:35 AM 34.7 °F 34.7 °F 100% 30.36 in 5.0 mi Calm Calm - N/A   Clear
3:55 AM 34.2 °F 34.2 °F 100% 30.36 in 4.0 mi Calm Calm - N/A   Clear
4:15 AM 35.8 °F 35.8 °F 100% 30.37 in 4.0 mi Calm Calm - N/A   Clear
4:35 AM 34.5 °F 34.5 °F 100% 30.37 in 3.0 mi Calm Calm - N/A   Clear
4:55 AM 34.9 °F 34.9 °F 100% 30.37 in 4.0 mi Calm Calm - N/A   Clear
5:15 AM 34.3 °F 34.3 °F 100% 30.38 in 4.0 mi Calm Calm - N/A   Clear
5:35 AM 34.0 °F 34.0 °F 100% 30.38 in 5.0 mi Calm Calm - N/A   Clear
5:55 AM 34.7 °F 34.7 °F 100% 30.39 in 7.0 mi Calm Calm - N/A   Clear
6:15 AM 33.6 °F 33.6 °F 100% 30.40 in 3.0 mi Calm Calm - N/A   Clear
6:35 AM 33.8 °F 33.8 °F 100% 30.41 in 7.0 mi Calm Calm - N/A   Clear
6:55 AM 32.9 °F 32.9 °F 100% 30.42 in 4.0 mi Calm Calm - N/A   Clear
7:15 AM 33.6 °F 33.6 °F 100% 30.43 in 7.0 mi Calm Calm - N/A   Clear
7:35 AM 34.2 °F 34.2 °F 100% 30.43 in 5.0 mi Calm Calm - N/A   Clear
7:55 AM 37.4 °F 37.4 °F 100% 30.44 in 2.5 mi Calm Calm - N/A   Clear
8:35 AM 44.6 °F 44.2 °F 99% 30.44 in 7.0 mi Calm Calm - N/A   Clear
8:55 AM 47.7 °F 45.5 °F 92% 30.45 in 10.0 mi Calm Calm - N/A   Clear
9:15 AM 50.0 °F 46.9 °F 89% 30.45 in 10.0 mi Calm Calm - N/A   Clear
9:35 AM 52.5 °F 46.8 °F 81% 30.46 in 10.0 mi Calm Calm - N/A   Clear
9:55 AM 54.7 °F 46.4 °F 74% 30.46 in 10.0 mi SSW 4.6 mph - N/A   Clear
10:15 AM 55.8 °F 46.2 °F 70% 30.46 in 10.0 mi South 3.5 mph - N/A   Clear
10:55 AM 60.1 °F 47.5 °F 63% 30.45 in 10.0 mi Calm Calm - N/A   Clear
11:15 AM 62.1 °F 47.1 °F 58% 30.44 in 10.0 mi SSW 3.5 mph - N/A   Clear
11:35 AM 64.4 °F 47.7 °F 55% 30.43 in 10.0 mi SSW 3.5 mph - N/A   Clear
11:55 AM 65.7 °F 47.8 °F 53% 30.42 in 10.0 mi SSW 3.5 mph - N/A   Clear
12:15 PM 67.5 °F 48.2 °F 50% 30.40 in 7.0 mi South 4.6 mph - N/A   Clear
12:35 PM 69.4 °F 48.4 °F 47% 30.39 in 10.0 mi South 8.1 mph - N/A   Clear
12:55 PM 70.9 °F 48.0 °F 44% 30.38 in 10.0 mi SW 5.8 mph - N/A   Clear
1:15 PM 72.7 °F 48.7 °F 43% 30.37 in 10.0 mi SSE 5.8 mph - N/A   Clear
1:35 PM 74.3 °F 47.8 °F 39% 30.37 in 10.0 mi SSW 8.1 mph - N/A   Clear
1:55 PM 74.5 °F 48.0 °F 39% 30.36 in 10.0 mi SSW 8.1 mph - N/A   Clear
2:15 PM 74.5 °F 47.1 °F 38% 30.36 in 10.0 mi SSW 8.1 mph 16.1 mph N/A   Clear
2:35 PM 74.3 °F 46.8 °F 37% 30.36 in 10.0 mi South 6.9 mph - N/A   Clear
2:55 PM 75.0 °F 46.8 °F 37% 30.35 in 10.0 mi South 6.9 mph - N/A   Clear
3:15 PM 74.7 °F 46.6 °F 37% 30.35 in 10.0 mi South 5.8 mph - N/A   Clear
3:35 PM 73.8 °F 46.2 °F 37% 30.36 in 10.0 mi South 8.1 mph - N/A   Clear
3:55 PM 72.5 °F 46.2 °F 39% 30.36 in 10.0 mi South 4.6 mph - N/A   Clear
4:15 PM 72.3 °F 46.9 °F 40% 30.37 in 10.0 mi South 4.6 mph - N/A   Clear
4:35 PM 71.8 °F 46.6 °F 41% 30.37 in 10.0 mi Calm Calm - N/A   Clear
4:55 PM 69.3 °F 45.7 °F 43% 30.38 in 10.0 mi SSE 3.5 mph - N/A   Clear
5:15 PM 66.0 °F 45.1 °F 47% 30.38 in 10.0 mi SSE 3.5 mph - N/A   Clear
5:35 PM 64.8 °F 44.8 °F 48% 30.38 in 10.0 mi SSE 4.6 mph - N/A   Clear
5:55 PM 62.2 °F 44.8 °F 53% 30.39 in 10.0 mi SSE 3.5 mph - N/A   Clear
6:15 PM 63.9 °F 45.0 °F 50% 30.39 in 10.0 mi SSE 3.5 mph - N/A   Clear
6:35 PM 58.6 °F 45.0 °F 60% 30.40 in 10.0 mi SSE 3.5 mph - N/A   Clear
6:55 PM 59.5 °F 45.3 °F 59% 30.40 in 10.0 mi SSE 4.6 mph - N/A   Clear
7:15 PM 62.2 °F 46.8 °F 57% 30.40 in 10.0 mi SE 4.6 mph - N/A   Clear
7:35 PM 62.6 °F 47.3 °F 57% 30.40 in 10.0 mi SSE 4.6 mph - N/A   Clear
7:55 PM 62.6 °F 47.3 °F 57% 30.41 in 10.0 mi SSE 4.6 mph - N/A   Clear
8:15 PM 62.8 °F 47.5 °F 57% 30.41 in 10.0 mi SSE 4.6 mph - N/A   Clear
8:35 PM 62.2 °F 47.5 °F 58% 30.41 in 10.0 mi South 4.6 mph - N/A   Clear
8:55 PM 62.1 °F 47.7 °F 59% 30.41 in 10.0 mi SSE 4.6 mph - N/A   Clear
9:15 PM 62.4 °F 48.2 °F 60% 30.40 in 10.0 mi SSE 8.1 mph - N/A   Clear
9:35 PM 62.2 °F 48.2 °F 60% 30.41 in 10.0 mi SSE 5.8 mph - N/A   Clear
9:55 PM 61.0 °F 48.4 °F 63% 30.41 in 10.0 mi SSE 6.9 mph - N/A   Clear
10:15 PM 60.4 °F 48.4 °F 64% 30.41 in 10.0 mi SSE 3.5 mph - N/A   Clear
10:35 PM 59.9 °F 48.6 °F 66% 30.41 in 10.0 mi SSE 4.6 mph - N/A   Clear
10:55 PM 59.2 °F 48.6 °F 68% 30.41 in 10.0 mi SSE 4.6 mph - N/A   Clear
11:15 PM 58.6 °F 48.7 °F 70% 30.41 in 10.0 mi SSE 4.6 mph - N/A   Clear
11:35 PM 58.1 °F 48.7 °F 71% 30.41 in 10.0 mi South 3.5 mph - N/A   Clear
11:55 PM 57.4 °F 48.7 °F 73% 30.41 in 10.0 mi Calm Calm - N/A   Clear